Location: Goehring
(40.8151°N, 80.2131°W)
Time: 04:23:03
(UTC+00:00)

Daily predictions for brighter satellites

Satellite Brightness Start Highest point End
(mag) Time Altitude Azimuth Time Altitude Azimuth Time Altitude Azimuth
Cosmos 372 Rocket 4.1 00:01:25 10° S 00:06:30 54° ESE 00:11:36 10° NNE
Cosmos 2263 Rocket 3.1 00:02:35 10° SW 00:08:00 54° WNW 00:13:30 10° NNE
Cosmos 1464 Rocket 4.2 00:03:23 10° SSE 00:09:11 47° E 00:15:03 10° NNE
Cosmos 1025 Rocket 3.9 00:06:57 10° NNE 00:10:48 29° ENE 00:14:38 10° SE
BREEZE-M DEB (TANK) 3.3 00:09:19 10° SSW 00:12:04 49° SE 00:19:10 10° NE
USA 186 3.3 00:11:48 16° E 00:12:40 18° ENE 00:14:54 10° NNE
Cosmos 1782 Rocket 4.0 00:08:46 10° SSW 00:13:08 68° W 00:17:35 10° N
Cosmos 1844 Rocket 3.2 00:09:21 10° SSE 00:14:19 35° ESE 00:19:20 10° NE
Cosmos 1867 3.7 00:10:24 10° NNW 00:15:50 61° NE 00:21:02 11° SE
ISS -2.8 00:15:53 10° WSW 00:19:09 48° NNW 00:22:27 10° NE
Cosmos 2084 Rocket 4.4 00:17:20 10° NW 00:21:41 51° WSW 00:26:04 10° SSE
Cosmos 2151 Rocket 4.1 00:17:52 10° SSE 00:21:57 37° E 00:26:06 10° NNE
USA 234 4.0 00:18:55 10° ENE 00:24:31 30° SE 00:30:05 10° S
SJ-11-01 4.2 00:19:55 10° SSE 00:24:37 80° ENE 00:29:20 10° N
Lacrosse 5 rocket 4.2 00:23:41 10° NNW 00:25:07 11° NNW 00:26:34 10° N
Cosmos 2150 Rocket 4.2 00:21:02 10° S 00:26:12 51° ESE 00:31:26 10° NNE
Cosmos 1943 3.9 00:24:29 10° NNW 00:30:01 57° WSW 00:35:33 10° S
Cosmos 1125 Rocket 4.0 00:25:46 10° SSE 00:30:34 36° E 00:35:24 10° NE
CZ-2C R/B 2.0 00:28:03 10° WSW 00:31:18 31° S 00:32:43 22° SE
Cosmos 1891 Rocket 4.4 00:30:09 10° S 00:36:18 84° E 00:42:24 10° N
CSL-04 Debris 4.5 00:31:27 10° S 00:36:48 69° WSW 00:42:11 10° NNW
Exosat Rocket 4.0 00:33:02 10° S 00:38:29 40° ESE 00:43:09 10° NE
Cosmos 1975 Rocket 4.0 00:35:10 10° NNW 00:39:21 48° W 00:43:29 10° SSW
NOSS 3-4 (A) 4.2 00:35:17 10° SSE 00:40:02 26° ESE 00:42:16 21° ENE
NOSS 3-4 (C) 4.2 00:35:26 10° SSE 00:40:08 26° ESE 00:41:56 22° E
CSL-04 Rocket 4.1 00:38:16 10° S 00:43:36 63° WSW 00:49:04 10° NNW
Meteor 1-15 Rocket 4.2 00:48:09 10° S 00:53:36 57° E 00:59:10 10° NNE
Cosmos 1674 3.3 00:50:41 10° N 00:54:01 38° ENE 00:54:01 38° ENE
Cosmos 1805 4.4 00:57:53 28° NE 00:57:53 28° NE 01:00:09 10° NNE
Abrixas rocket 4.0 00:54:56 10° NW 00:56:59 18° N 00:57:14 18° NNE
Resurs 01 Rocket 3.3 00:59:15 19° NE 00:59:15 19° NE 01:01:28 10° NNE
H-2A R/B 2.7 00:53:44 10° S 00:58:33 52° W 01:03:29 10° NNW
IRS-1A Rocket 4.3 00:55:43 18° SSE 01:00:10 72° ENE 01:06:01 10° N
Cosmos 1048 Rocket 4.0 00:55:30 10° NNW 01:00:49 67° ENE 01:03:09 34° SE
ATLAS 2AS CENTAUR R/B 3.3 00:55:10 10° S 01:02:24 42° ESE 01:09:43 10° NE
Nadezhda 4 Rocket 3.8 00:56:26 10° N 01:02:34 77° E 01:07:55 14° SSE
BREEZE-M TANK 3.4 00:52:39 10° WSW 01:03:21 75° NNW 01:05:14 32° ENE
Cosmos 2034 Rocket 4.0 01:01:13 10° S 01:07:35 84° W 01:13:58 10° N
CENTAUR R/B 3.4 01:02:33 10° NNW 01:10:31 55° NE 01:14:15 35° ESE
Okean 1 Rocket 2.9 01:16:18 67° ESE 01:16:31 69° E 01:21:00 10° NNE
ATLAS 3B R/B 4.0 01:12:57 10° NNW 01:18:22 24° NE 01:20:03 22° ENE
Ariane Rocket 3.0 01:16:43 27° S 01:19:29 77° WSW 01:24:35 10° NNW
KORONAS-FOTON 4.0 01:16:59 10° N 01:20:25 66° N 01:20:25 66° N
OBJECT-B 3.0 01:23:19 19° N 01:23:19 19° N 01:24:24 10° N
Cosmos 2082 Rocket 4.3 01:21:34 10° NNE 01:23:32 13° NE 01:23:32 13° NE
Cosmos 494 Rocket 3.9 01:21:02 10° NNW 01:26:18 73° ENE 01:26:49 67° ESE
USA 238 DEB 3.8 01:19:05 10° NW 01:26:23 88° NE 01:29:18 42° SE
USA 238 3.8 01:19:10 10° NW 01:26:30 87° ENE 01:29:22 42° SE
Meteor 2-5 Rocket 3.7 01:21:41 10° N 01:27:19 63° ENE 01:27:52 60° ESE
ARGOS 4.4 01:22:58 10° SSW 01:27:57 39° W 01:32:59 10° NNW
Resurs 1-3 4.0 01:32:05 52° NNE 01:32:05 52° NNE 01:35:33 10° N
Meteor 1-22 Rocket 4.2 01:32:15 61° E 01:32:17 61° E 01:38:13 10° NNE
SJ-6B 3.4 01:33:14 51° W 01:33:14 51° W 01:36:44 10° NNW
CZ-2C R/B 3.2 01:28:57 10° N 01:34:25 61° WNW 01:39:55 10° SSW
Cosmos 1634 Rocket 3.8 01:37:16 50° SSE 01:38:58 77° E 01:45:10 10° N
COSMOS 2406 4.2 01:33:56 10° N 01:38:13 32° NE 01:38:13 32° NE
USA 186 4.3 01:43:19 20° W 01:43:19 20° W 01:45:41 10° NW
SPOT 3 Rocket 3.5 01:44:55 75° NNE 01:44:55 75° NNE 01:49:42 10° NNW
Meteor 1-24 Rocket 3.8 01:39:34 10° N 01:44:32 63° NE 01:44:32 63° NE
Cosmos 2285 Rocket 4.4 01:43:19 10° SSW 01:49:31 61° WNW 01:55:49 10° NNE
NOSS 3-2 (A) 4.4 01:45:38 10° NW 01:53:18 64° WSW 01:56:30 40° S
ISS -0.7 01:54:27 10° NW 01:55:46 15° NNW 01:55:46 15° NNW
Cosmos 1844 Rocket 4.3 01:53:11 10° WSW 01:58:10 33° WNW 02:03:12 10° N
Cosmos 1092 Rocket 4.4 01:57:19 10° NNW 02:03:20 58° W 02:05:04 43° SW
Lacrosse 5 rocket 4.3 02:05:05 10° N 02:06:09 11° N 02:06:09 11° N
USA 234 3.3 02:04:41 33° NE 02:07:51 76° NW 02:14:23 10° WSW
Cosmos 2026 Rocket 4.1 02:01:42 10° NNW 02:08:03 72° W 02:08:37 67° SW
Milstar 3 Cent rocket 4.5 02:13:32 10° SW 02:14:14 12° SW 02:14:14 12° SW
Cosmos 2279 Rocket 4.5 02:21:53 54° N 02:21:53 54° N 02:26:39 10° N
Cosmos 1833 Rocket 3.9 02:18:36 10° NNW 02:21:52 34° N 02:21:52 34° N
NOSS 3-2 (C) 4.3 02:21:21 10° NW 02:28:59 60° WSW 02:29:49 57° SW
NOSS 3-4 (A) 4.0 02:24:43 10° SW 02:34:00 24° NNE 02:36:34 10° NNE
NOSS 3-4 (C) 4.1 02:24:49 10° SW 02:34:27 22° NNE 02:36:40 10° NNE
Resurs 01 Rocket 4.0 02:36:49 21° NW 02:36:49 21° NW 02:38:35 10° NNW
ATLAS 2AS CENTAUR R/B 3.7 02:45:40 10° WSW 02:53:20 51° NW 03:01:00 10° NNE
CENTAUR R/B 4.0 02:53:33 10° NW 03:01:17 42° WSW 03:01:27 42° WSW
Cosmos 2082 Rocket 4.2 03:03:25 10° NNW 03:05:22 22° NNW 03:05:22 22° NNW
ATLAS 3B R/B 3.7 03:02:58 10° NW 03:07:18 43° NW 03:07:18 43° NW
Cosmos 1980 Rocket 4.5 07:10:58 18° ENE 07:10:58 18° ENE 07:13:11 10° NE
ADEOS II 4.1 07:26:10 10° NNE 07:28:11 23° NNE 07:28:11 23° NNE
IDEFIX/ARIANE 42P 4.5 07:35:44 10° NE 07:39:15 26° ENE 07:39:15 26° ENE
SJ 16-02 4.5 07:48:41 10° NNE 07:50:28 12° ENE 07:52:15 10° E
Lacrosse 5 3.5 08:06:13 30° NNE 08:06:13 30° NNE 08:09:00 10° NE
Cosmos 2278 4.4 08:08:13 52° NE 08:08:13 52° NE 08:12:32 10° NNE
CZ-2D R/B 4.4 08:03:01 10° N 08:04:03 15° NNW 08:04:03 15° NNW
Resurs 1-4 Rocket 4.4 08:09:21 10° NNW 08:10:13 14° NNW 08:10:13 14° NNW
NOSS 3-3 (A) 4.2 08:19:03 56° ESE 08:19:03 56° ESE 08:25:07 10° NE
NOSS 3-3 (C) 4.2 08:19:13 55° ESE 08:19:13 55° ESE 08:25:11 10° NE
USA 267 3.2 08:15:51 10° NE 08:22:20 67° NW 08:22:28 67° NW
Spot 4 Rocket 4.1 08:30:17 10° NNE 08:35:06 74° ENE 08:35:06 74° ENE
SL-8 R/B 4.3 08:39:54 52° NNE 08:39:59 52° NNE 08:44:38 10° E
Cosmos 921 Rocket 3.7 08:43:18 49° NE 08:43:18 49° NE 08:46:34 10° NNE
MSX 3.9 08:39:37 10° NNE 08:45:25 75° ESE 08:47:06 48° S
Cosmos 1812 3.8 08:46:42 43° ENE 08:46:42 43° ENE 08:49:57 10° NNE
Timation 1 Rocket 4.2 08:41:18 10° NNW 08:47:19 78° WSW 08:53:18 10° SSE
Cosmos 1697 Rocket 3.9 08:48:35 28° NW 08:48:35 28° NW 08:52:26 10° N
Cosmos 1500 4.3 08:44:31 10° N 08:47:32 42° NE 08:47:32 42° NE
Cosmos 1980 Rocket 2.5 08:52:46 49° NW 08:52:46 49° NW 08:57:59 10° NNE
USA 234 3.5 08:49:18 10° ESE 08:55:46 68° NE 09:02:16 10° NW
BREEZE-M DEB (TANK) 3.6 08:55:57 41° SW 08:58:47 68° SSE 09:02:35 10° ENE
Cosmos 2322 Rocket 3.2 08:55:32 18° S 08:59:26 44° ESE 09:04:48 10° NE
BREEZE-M DEB (TANK) 3.5 09:01:04 42° N 09:01:04 42° N 09:05:22 10° NE
Cosmos 2263 Rocket 2.5 08:55:53 10° NNW 09:01:32 68° ENE 09:07:10 10° SSE
Meteor 2-9 4.5 08:59:24 10° N 09:04:55 87° W 09:10:19 10° S
Celestis-02/Orion 38 4.4 09:02:02 10° SSE 09:07:18 73° WSW 09:12:30 10° NNW
SL-16 R/B 2.5 09:05:31 27° S 09:08:38 65° ESE 09:14:16 10° NNE
SL-4 R/B 2.6 09:08:18 49° S 09:09:05 56° SE 09:13:43 10° ENE
Cosmos 2228 Rocket 3.2 09:09:42 55° NW 09:09:42 55° NW 09:13:34 10° N
FALCON 9 DEB 3.9 09:10:01 49° ESE 09:10:01 49° ESE 09:13:00 10° ENE
ADEOS II 3.9 09:07:09 10° NNW 09:09:07 16° NW 09:09:07 16° NW
Cosmos 1934 Rocket 4.0 09:05:31 10° NNW 09:11:20 51° W 09:12:49 42° SW
ARIANE 5 R/B 3.5 09:08:58 10° N 09:12:41 30° NW 09:12:41 30° NW
Meteor 1-4 Rocket 2.4 09:16:32 82° ENE 09:16:32 82° ENE 09:19:57 10° N
COSMOS 2441 4.4 09:12:28 10° N 09:17:20 62° WNW 09:18:29 47° SW
Cosmos 1869 Rocket 3.4 09:15:25 10° N 09:19:46 83° W 09:24:05 10° S
IDEFIX/ARIANE 42P 3.1 09:14:59 10° N 09:19:48 37° WNW 09:20:03 37° WNW
ASTEX 1 4.2 09:15:19 10° NNW 09:19:17 34° WNW 09:19:17 34° WNW
CZ-2C R/B 2.7 09:14:40 10° NNE 09:19:50 73° ESE 09:24:59 10° S
Cosmos 2227 4.0 09:15:03 10° NNW 09:20:42 80° WSW 09:26:19 10° SSE
Meteor 1-10 Rocket 4.2 09:17:10 22° SSW 09:20:57 80° W 09:26:52 10° N
ERBS 3.2 09:22:46 37° NNW 09:22:46 37° NNW 09:25:29 10° NNE
CZ-2C R/B 3.5 09:18:57 10° N 09:21:45 37° NW 09:21:45 37° NW
Cosmos 1763 Rocket 3.5 09:21:34 24° SSW 09:24:53 86° ESE 09:30:14 10° NNE
IRIDIUM 106 4.2 09:19:52 10° N 09:25:06 83° W 09:30:19 10° S
SJ 16-02 1.2 09:25:09 10° NNW 09:29:31 67° WSW 09:33:53 10° S
PSLV R/B 3.3 09:28:04 10° N 09:32:17 78° WNW 09:34:43 24° SSW
Cosmos 44 4.4 09:33:21 23° NW 09:33:47 24° NW 09:37:32 10° N
Cosmos 1153 Rocket 4.5 09:28:10 10° N 09:34:35 84° W 09:40:53 10° S
Meteor 1-5 Rocket 4.1 09:29:27 10° NNW 09:34:42 60° W 09:40:01 10° S
CZ-4B R/B 2.9 09:31:58 10° SE 09:34:54 37° ENE 09:37:54 10° N
Meteor 2-6 Rocket 4.5 09:32:38 29° SW 09:35:15 48° WNW 09:40:53 10° N
H-2A R/B 2.1 09:31:09 10° S 09:35:23 53° W 09:39:46 10° NNW
DEBRIS 2.5 09:34:58 45° NW 09:35:44 85° NE 09:41:11 10° ESE
Cosmos 1238 Rocket 4.5 09:30:44 10° NNW 09:36:32 35° W 09:39:04 25° SW
Cosmos 1605 Rocket 4.2 09:32:29 10° NNW 09:38:37 50° W 09:44:44 10° SSW
Landsat 5 4.0 09:41:45 10° SSW 09:45:59 40° W 09:50:14 10° NNW
PAYLOAD A 3.9 09:42:26 10° N 09:47:00 52° WNW 09:50:29 17° SW
Lacrosse 5 3.9 09:45:25 12° NW 09:48:05 17° NNW 09:51:20 10° NNE
ERS-2 2.0 09:44:47 10° S 09:48:24 62° WSW 09:52:02 10° NNW
Cosmos 990 Rocket 3.9 09:45:09 10° NNW 09:50:18 66° WSW 09:55:28 10° S
Cosmos 540 Rocket 3.6 09:46:28 10° SSW 09:51:37 76° ESE 09:56:48 10° NNE
X-37B 1.0 09:51:11 26° NW 09:52:46 61° NNE 09:55:55 10° E
Cosmos 468 Rocket 4.3 09:50:04 20° SW 09:53:25 47° WNW 09:58:30 10° N
ALOS 2.6 09:55:01 10° NNE 09:59:40 69° ESE 10:04:18 10° S
Cosmos 1484 Rocket 3.1 09:55:49 10° NNE 09:59:49 73° E 10:03:49 10° S
COSMO-SKYMED 1 4.4 09:58:29 10° SE 10:02:25 35° ENE 10:06:22 10° N
NOSS 3-4 (A) 4.2 09:56:18 10° NNW 10:03:23 71° NE 10:11:12 10° SE
NOSS 3-4 (C) 4.3 09:56:24 10° NNW 10:03:29 70° NE 10:11:19 10° SE
USA 267 4.5 09:59:14 10° NE 10:04:36 28° NNW 10:09:48 11° WNW
Cosmos 1536 2.9 10:02:58 10° NNW 10:06:59 56° W 10:10:57 10° S
Meteor 1-31 Rocket 2.8 10:07:32 10° NNE 10:11:22 81° E 10:15:13 10° S
Cosmos 1727 Rocket 4.5 10:05:49 10° SW 10:11:42 40° WNW 10:17:37 10° N
Cosmos 1437 Rocket 3.1 10:09:35 10° S 10:13:19 66° E 10:17:07 10° NNE
Meteor 1-11 Rocket 4.1 10:08:57 10° NNW 10:14:22 43° W 10:19:38 10° SSW
Cosmos 2100 Rocket 4.0 10:09:03 10° NNW 10:15:22 65° W 10:21:38 10° S
deb Chang Zheng 4 3.7 10:15:58 10° N 10:20:09 51° WNW 10:24:16 10° SSW
Cosmos 1802 Rocket 4.0 10:14:30 10° N 10:20:43 79° W 10:26:58 10° S
SL-8 R/B 4.1 10:17:58 10° WNW 10:22:29 44° SW 10:27:01 10° SSE
Meteor 1-27 Rocket 4.3 10:17:57 10° SW 10:23:27 39° WNW 10:28:59 10° N
Cosmos 1908 Rocket 4.4 10:19:30 10° N 10:23:55 56° E 10:28:18 10° SSE
METEOR-M 4.1 10:19:38 10° NNE 10:25:01 83° WNW 10:30:21 10° SSW
Cosmos 1898 Rocket 4.1 10:21:21 10° NW 10:26:03 34° W 10:30:45 10° SSW
Cosmos 1515 4.3 10:22:24 10° S 10:26:08 60° E 10:29:54 10° NNE
Cosmos 2360 Rocket 2.2 10:20:39 10° SSW 10:26:17 68° WNW 10:31:57 10° NNE
ATLAS 2AS CENTAUR R/B 3.0 10:19:54 10° NNW 10:27:23 81° NE 10:34:11 10° SE
ADEOS Rocket 3.5 10:21:23 10° S 10:27:57 45° W 10:33:55 10° NNW
Cosmos 1666 4.0 10:26:20 10° NW 10:29:08 20° W 10:31:54 10° SW
Cosmos 1459 Rocket 4.1 10:24:31 10° NNW 10:30:24 52° W 10:36:13 10° SSW
Cosmos 372 Rocket 4.0 10:27:33 10° NNW 10:32:43 89° WSW 10:37:49 10° SSE
Cosmos 2123 Rocket 4.0 10:28:46 10° SSW 10:35:00 76° W 10:41:19 10° N
SAR-Lupe-4 4.2 10:33:02 10° SSW 10:36:20 35° W 10:39:40 10° NNW
FENGYUN 3A 3.8 10:31:12 10° N 10:36:27 55° WNW 10:41:43 10° SSW
Cosmos 2242 Rocket 3.6 10:32:22 10° S 10:36:46 87° W 10:41:11 10° N
USA 234 3.9 10:33:14 10° S 10:39:02 34° SW 10:44:52 10° WNW
Cosmos 2208 Rocket 4.2 10:34:27 10° SW 10:39:32 49° WNW 10:44:36 10° N
Okean 1-7 3.4 10:36:21 10° S 10:40:34 69° E 10:44:47 10° NNE
Cosmos 2322 Rocket 3.2 10:38:47 10° WSW 10:43:37 28° NW 10:48:29 10° N
Cosmos 2263 Rocket 3.6 10:41:26 10° WNW 10:44:49 16° W 10:48:12 10° SW
Cosmos 1844 3.8 10:42:18 10° NNW 10:47:54 85° ENE 10:53:28 10° SSE
